[[{"header":{"parameterUnit":"m.s-1","parameterCategory":1,"la1":30.2991,"la2":30.254,"lo1":-89.0895,"lo2":-89.0444,"dy":0.0017,"dx":0.0017,"nx":28,"ny":28,"refTime":"2025-08-21T21:00:00:Z","depth":0,"parameterNumber":2,"parameterNumberName":"U-component_of_WINDS"},"data":[0,0,0,0,0,0,0,0,0,0,0,0,0,0,0,0,0,0,0,0,0,0,0,0,0,0,0,0,0,0,0,0,0,0,0,0,0,0,0,0,0,0,0,0,0,0,0,0,0,0,0,0,0,0,0,0,0,0,0.1697,0.1697,0,0.1725,0.1726,0.1726,0.1706,0.1705,0.1704,0.1703,0.1732,0.1734,0.1735,0,0,0,0,0,0,0,0,0,0,0,0,0,0.1625,0.1626,0.1697,0.1697,0.1698,0.1725,0.1726,0.1726,0.1706,0.1705,0.1704,0.1703,0.1732,0.1734,0.1736,0,0,0,0,0,0,0,0,0,0,0,0,0,0.1655,0.1627,0.1697,0.1691,0.1691,0.1725,0.1726,0.1726,0.1706,0.1705,0.1704,0.1702,0.1731,0.1734,0.1736,0.1778,0,0,0.1743,0.1744,0,0,0,0,0,0,0,0,0.1653,0.1658,0.1691,0.1691,0.1691,0.1711,0.1711,0.1743,0.1707,0.17,0.1703,0.1702,0.1726,0.1729,0.1737,0.1779,0.178,0.1743,0.1745,0.1746,0.1747,0,0,0,0,0,0,0,0.1651,0.1656,0.1708,0.1692,0.1692,0.1687,0.1689,0.1717,0.172,0.1701,0.1699,0.1703,0.1726,0.1735,0.1738,0.1781,0.1743,0.1746,0.1747,0.1748,0.1857,0.1858,0,0,0,0,0,0,0.165,0.1655,0.1707,0.1709,0.1668,0.1689,0.1692,0.1706,0.172,0.1721,0.1704,0.1702,0.1731,0.1735,0.1739,0.1788,0.1746,0.1748,0.175,0.1855,0.1857,0.1859,0,0,0,0,0,0,0.1648,0.1654,0.1706,0.1681,0.1688,0.1692,0.1707,0.1707,0.1716,0.1723,0.1723,0.1713,0.1731,0.1735,0.1768,0.1788,0.1749,0.1752,0.1854,0.1856,0.1858,0.1886,0,0,0,0,0,0,0.1646,0.1654,0.167,0.1682,0.1689,0.1735,0.1708,0.1709,0.172,0.1718,0.1731,0.1732,0.173,0.1764,0.177,0.1791,0.1753,0.1852,0.1855,0.1857,0.1883,0.1889,0.1894,0,0,0,0,0,0.1644,0.1677,0.1671,0.1678,0.1709,0.1736,0.174,0.1737,0.1722,0.1738,0.1742,0.1731,0.1785,0.1768,0.1774,0.1796,0.185,0.1854,0.1857,0.1881,0.1888,0.1894,0,0,0,0,0,0,0.1668,0.1679,0.1672,0.1711,0.1723,0.1733,0.1753,0.1745,0.1762,0.1758,0.1754,0.1757,0.1791,0.1797,0.1777,0.1836,0.1815,0.182,0.1831,0.1838,0.1843,0.1841,0.1755,0,0,0,0,0,0.1678,0.1699,0.1707,0.174,0.1747,0.1749,0.1761,0.1757,0.1769,0.1775,0.1781,0.1793,0.1813,0.1826,0.1844,0.1884,0.1886,0.1902,0.1907,0.1912,0.1916,0.1936,0.1943,0.1869,0.1869,0.1869,0,0,0.1699,0.1707,0.1721,0.1746,0.1755,0.1776,0.1753,0.1777,0.1793,0.1778,0.1809,0.1814,0.1827,0.1864,0.188,0.1869,0.1936,0.1916,0.1919,0.1921,0.194,0.1947,0.1953,0.1871,0.1871,0.1871,0,0,0.1747,0.1756,0.1784,0.1793,0.1807,0.1808,0.1815,0.1826,0.1829,0.186,0.1848,0.1867,0.1901,0.1911,0.192,0.1971,0.1962,0.1977,0.2005,0.2025,0.203,0.2035,0.2053,0.2059,0.1981,0.1982,0.1982,0,0.1771,0.1803,0.18,0.1824,0.1835,0.1822,0.185,0.1859,0.1878,0.1886,0.1874,0.1916,0.1924,0.1962,0.1974,0.1982,0.1989,0.1976,0.203,0.2035,0.204,0.2056,0.2063,0.1983,0.1983,0.1983,0.1983,0,0.1832,0.1854,0.1875,0.1893,0.1907,0.1933,0.1933,0.1947,0.1942,0.1944,0.1975,0.1984,0.2004,0.2013,0.2009,0.2049,0.2042,0.203,0.2009,0.2048,0.2064,0.207,0.1986,0.1985,0.1985,0.1984,0,0,0.1897,0.1912,0.192,0.1927,0.1941,0.1958,0.1983,0.2002,0.2014,0.2027,0.2048,0.2077,0.2065,0.2076,0.2073,0.209,0.2129,0.2076,0.2076,0.2085,0.2173,0.2182,0.2189,0.2123,0.2124,0.2125,0.2172,0,0.1945,0.1989,0.1986,0.2028,0.2048,0.2035,0.2057,0.2068,0.207,0.2087,0.209,0.211,0.2094,0.21,0.2117,0.2121,0.2147,0.2117,0.2141,0.2142,0.2138,0.2197,0.2207,0.2251,0.2178,0.2179,0.218,0,0.2008,0.2023,0.2066,0.2076,0.2084,0.2104,0.212,0.2137,0.2149,0.2149,0.2161,0.2154,0.2179,0.2157,0.2191,0.2171,0.2181,0.2184,0.2186,0.2187,0.2163,0.22,0.2265,0.2271,0.2189,0.2189,0.2188,0,0.205,0.2081,0.211,0.2117,0.213,0.2144,0.2149,0.216,0.2171,0.2185,0.2192,0.221,0.2219,0.2232,0.2231,0.2215,0.2265,0.2243,0.2265,0.2265,0.2276,0.2275,0.2342,0.2284,0.2283,0.2283,0.2283,0,0.2104,0.2131,0.2129,0.2147,0.2177,0.2173,0.2202,0.2206,0.2215,0.2233,0.2224,0.2241,0.2238,0.2255,0.2254,0.2282,0.2286,0.2287,0.2286,0.2288,0.2287,0.2293,0.229,0.2285,0.2285,0.2284,0.2284,0,0.2156,0.2156,0.2187,0.2196,0.2199,0.222,0.2227,0.2244,0.2245,0.2269,0.2274,0.2276,0.2296,0.2296,0.2318,0.2317,0.2351,0.2347,0.2347,0.2346,0.2368,0.2366,0.2441,0.245,0.2386,0.2387,0.2387,0,0.219,0.221,0.2221,0.2232,0.2239,0.2257,0.2268,0.2265,0.2277,0.2291,0.2306,0.2325,0.234,0.2372,0.2375,0.2392,0.2388,0.2414,0.2391,0.2391,0.2388,0.2386,0.2388,0.2418,0.2419,0.2419,0.242,0,0.225,0.2249,0.2265,0.2282,0.2295,0.2308,0.232,0.233,0.2327,0.2341,0.2361,0.2373,0.2395,0.2414,0.243,0.2436,0.2427,0.2427,0.2433,0.2434,0.2432,0.2432,0.2358,0.2425,0.2424,0.2424,0.2424,0.2423,0.2294,0.231,0.232,0.2338,0.2347,0.2358,0.2374,0.2377,0.2393,0.2411,0.2408,0.243,0.244,0.2461,0.2468,0.2485,0.2476,0.2485,0.2487,0.2489,0.2491,0.243,0.2488,0.2488,0.2488,0.2488,0.2488,0,0.2352,0.2358,0.2375,0.2391,0.2405,0.2396,0.2408,0.2421,0.244,0.245,0.2465,0.2487,0.2505,0.2509,0.2526,0.2539,0.2535,0.2543,0.2542,0.2543,0.2498,0.2491,0.2546,0.2546,0.2546,0.2546,0.2546,0.2546,0.2385,0.2412,0.2412,0.2444,0.2449,0.247,0.2478,0.2488,0.2495,0.2521,0.2535,0.2538,0.2546,0.2563,0.2579,0.2579,0.2586,0.2595,0.2595,0.2552,0.2547,0.2541,0.2534,0.2597,0.2597,0.2638,0.2638,0.2638]},{"header":{"parameterUnit":"m.s-1","parameterCategory":1,"la1":30.2991,"la2":30.254,"lo1":-89.0895,"lo2":-89.0444,"dy":0.0017,"dx":0.0017,"nx":28,"ny":28,"refTime":"2025-08-21T21:00:00:Z","depth":0,"parameterNumber":3,"parameterNumberName":"V-component_of_WINDS"},"data":[0,0,0,0,0,0,0,0,0,0,0,0,0,0,0,0,0,0,0,0,0,0,0,0,0,0,0,0,0,0,0,0,0,0,0,0,0,0,0,0,0,0,0,0,0,0,0,0,0,0,0,0,0,0,0,0,0,0,1.0761,1.0762,0,1.0832,1.0833,1.0834,1.0816,1.0814,1.0813,1.0811,1.0884,1.0887,1.089,0,0,0,0,0,0,0,0,0,0,0,0,0,1.0607,1.061,1.0761,1.0762,1.0763,1.0832,1.0833,1.0834,1.0816,1.0814,1.0812,1.0811,1.0883,1.0887,1.089,0,0,0,0,0,0,0,0,0,0,0,0,0,1.0676,1.0611,1.0761,1.0762,1.0763,1.0832,1.0833,1.0835,1.0816,1.0814,1.0812,1.081,1.0881,1.0886,1.0891,1.0963,0,0,1.0906,1.0908,0,0,0,0,0,0,0,0,1.0672,1.0682,1.0761,1.0762,1.0763,1.0813,1.0806,1.0878,1.0817,1.0796,1.0811,1.0809,1.0862,1.0868,1.0886,1.0967,1.097,1.0906,1.0909,1.0911,1.0913,0,0,0,0,0,0,0,1.0667,1.0678,1.0789,1.0762,1.0764,1.0758,1.0766,1.0819,1.084,1.0798,1.0796,1.0805,1.0862,1.0882,1.0888,1.0971,1.0906,1.091,1.0913,1.0915,1.1112,1.1115,0,0,0,0,0,0,1.0662,1.0675,1.0787,1.0791,1.0712,1.0763,1.0771,1.0799,1.0839,1.0843,1.0807,1.0804,1.0874,1.0882,1.089,1.0977,1.0911,1.0916,1.0919,1.111,1.1113,1.1115,0,0,0,0,0,0,1.0659,1.0672,1.0784,1.0733,1.0747,1.0768,1.0799,1.0802,1.0821,1.0846,1.085,1.0823,1.0873,1.0883,1.0945,1.0979,1.0918,1.0922,1.1107,1.1111,1.1114,1.1151,0,0,0,0,0,0,1.0654,1.0671,1.0699,1.0734,1.0749,1.0838,1.0801,1.0805,1.083,1.0827,1.0862,1.0866,1.0872,1.0938,1.095,1.0985,1.0926,1.1104,1.1109,1.1113,1.1147,1.1155,1.1162,0,0,0,0,0,1.0649,1.0707,1.0701,1.0715,1.0785,1.084,1.0849,1.0855,1.0833,1.0861,1.0876,1.0865,1.0973,1.0944,1.0958,1.0994,1.1102,1.1108,1.1113,1.1143,1.1154,1.1162,0,0,0,0,0,0,1.0677,1.0712,1.0705,1.0776,1.0805,1.0837,1.0873,1.0866,1.0902,1.0898,1.0903,1.0911,1.0974,1.099,1.0957,1.1066,1.1034,1.1043,1.1053,1.1063,1.1071,1.1066,1.093,0,0,0,0,0,1.0691,1.0733,1.0761,1.0821,1.0836,1.0852,1.0876,1.0878,1.0908,1.0921,1.0941,1.0971,1.1011,1.1038,1.1077,1.1149,1.1156,1.118,1.1188,1.1195,1.1202,1.124,1.1251,1.1133,1.1133,1.1132,0,0,1.0721,1.0745,1.0772,1.0827,1.085,1.0893,1.0863,1.091,1.0942,1.0928,1.0987,1.1003,1.1036,1.1103,1.1134,1.1119,1.1236,1.1201,1.1206,1.121,1.1246,1.1258,1.1268,1.1136,1.1135,1.1135,0,0,1.0798,1.0821,1.0873,1.0896,1.0931,1.0941,1.0953,1.0986,1.0996,1.1055,1.1045,1.1083,1.1153,1.1177,1.1198,1.1282,1.1273,1.1294,1.1336,1.1373,1.1382,1.139,1.142,1.1431,1.1301,1.1301,1.1301,0,1.0831,1.0896,1.09,1.0948,1.0972,1.0961,1.1013,1.1036,1.1081,1.1098,1.108,1.1167,1.1189,1.1261,1.1281,1.1299,1.1312,1.1291,1.1381,1.1389,1.1397,1.1425,1.1436,1.1304,1.1303,1.1303,1.1303,0,1.0935,1.098,1.1017,1.1061,1.109,1.1139,1.115,1.1179,1.1177,1.1189,1.1249,1.1274,1.1317,1.1334,1.1334,1.1406,1.1395,1.1379,1.1348,1.141,1.1437,1.1448,1.1307,1.1306,1.1306,1.1305,0,0,1.1032,1.1077,1.1091,1.111,1.1147,1.1182,1.123,1.1272,1.1296,1.1327,1.1368,1.1426,1.1411,1.1435,1.1437,1.147,1.1534,1.1449,1.145,1.1464,1.1614,1.1626,1.1638,1.1527,1.1529,1.1531,1.1611,0,1.1112,1.1198,1.1203,1.1281,1.1322,1.1311,1.1353,1.138,1.1391,1.1427,1.144,1.1481,1.1458,1.1473,1.1504,1.1519,1.1564,1.1513,1.1565,1.1566,1.1557,1.1652,1.1665,1.174,1.1621,1.1623,1.1624,0,1.1218,1.1252,1.1334,1.1363,1.1381,1.1419,1.1457,1.1492,1.1521,1.1527,1.1553,1.155,1.1599,1.1565,1.1632,1.1598,1.1619,1.1629,1.1632,1.1637,1.1599,1.166,1.1763,1.1775,1.1641,1.1639,1.1638,0,1.128,1.1347,1.1404,1.1421,1.1457,1.1484,1.15,1.1527,1.1552,1.1585,1.1601,1.1639,1.166,1.169,1.1696,1.1672,1.1763,1.173,1.1769,1.1769,1.1789,1.1788,1.1898,1.1803,1.1803,1.1802,1.1802,0,1.137,1.142,1.1433,1.1468,1.1524,1.1528,1.1582,1.1597,1.1621,1.1658,1.1651,1.1686,1.1692,1.1729,1.1734,1.1788,1.1798,1.1804,1.1804,1.1804,1.1804,1.1819,1.1814,1.1805,1.1805,1.1804,1.1804,0,1.145,1.146,1.1522,1.155,1.1559,1.1598,1.1623,1.1656,1.1666,1.1713,1.1724,1.174,1.1782,1.1792,1.1842,1.1845,1.1909,1.1905,1.19,1.1899,1.1937,1.1934,1.2061,1.2077,1.1971,1.1972,1.1973,0,1.1506,1.1544,1.1577,1.1601,1.1618,1.1658,1.1683,1.1687,1.1713,1.1749,1.1778,1.1819,1.1852,1.192,1.1936,1.1974,1.197,1.2012,1.1976,1.1974,1.1971,1.1968,1.1972,1.2019,1.202,1.2021,1.2022,0,1.1605,1.1607,1.1644,1.1681,1.1711,1.1741,1.1769,1.1789,1.1798,1.1827,1.187,1.1896,1.1946,1.1987,1.2025,1.2041,1.2033,1.2033,1.2044,1.2044,1.2039,1.2042,1.1918,1.203,1.2029,1.2029,1.2028,1.2028,1.1675,1.1708,1.1735,1.1775,1.1797,1.1823,1.1856,1.1869,1.1905,1.1947,1.1947,1.1994,1.2021,1.207,1.2089,1.2125,1.2112,1.2128,1.2132,1.2135,1.2139,1.2033,1.2131,1.2131,1.2131,1.2131,1.2131,0,1.1773,1.1789,1.1826,1.1866,1.1897,1.1886,1.1916,1.1943,1.1984,1.201,1.2043,1.2091,1.213,1.2148,1.2187,1.2212,1.2209,1.2222,1.222,1.2224,1.2148,1.2135,1.2224,1.2224,1.2224,1.2224,1.2224,1.2223,1.1827,1.1883,1.1888,1.1954,1.197,1.2016,1.2034,1.2058,1.2078,1.2133,1.2165,1.2177,1.2199,1.2239,1.2274,1.2278,1.2292,1.2307,1.231,1.2239,1.2229,1.222,1.2208,1.231,1.231,1.2382,1.2383,1.2383]}]]